Terug naar catalogus

STARLINK-30158

ActiefCommunicatieVLEO
NORAD 57438·PAYLOAD·🇺🇸 United States

Gelanceerd Jul 24, 2023 vanaf Cape Canaveral Space Force Station

Loading…

Volgende Passages (komende 24 uur)

TLE

VersSource: CelesTrak SupGP

Epoch: Sep 15, 2026, 03:08 UTC

1 57438C 23105J   26258.13104167 -.00014905  00000+0 -53995-3 0  2586
2 57438  42.9996 270.0737 0001382 258.6781  93.2361 15.27581143    17

Volg STARLINK-30158 in realtime met AllMySat

Download on the App Store